TimeEST,TemperatureF,Dew PointF,Humidity,Sea Level PressureIn,VisibilityMPH,Wind Direction,Wind SpeedMPH,Gust SpeedMPH,PrecipitationIn,Events,Conditions,WindDirDegrees,DateUTC
12:02 AM,33.8,28.4,81,29.20,10.0,South,16.1,26.5,N/A,,Overcast,190,2012-12-21 05:02:00
12:35 AM,32.0,28.4,87,29.19,2.5,South,9.2,20.7,0.00,Snow,Light Snow,180,2012-12-21 05:35:00
12:38 AM,32.0,28.4,87,29.18,1.8,SSW,12.7,20.7,0.00,Snow,Light Snow,200,2012-12-21 05:38:00
12:45 AM,32.0,28.4,87,29.18,1.8,South,10.4,19.6,0.00,Snow,Light Snow,190,2012-12-21 05:45:00
12:52 AM,32.0,28.9,88,29.20,2.0,South,13.8,20.7,0.00,Snow,Light Snow,190,2012-12-21 05:52:00
1:23 AM,32.0,30.2,93,29.18,5.0,SSW,11.5,-,0.00,Snow,Light Snow,200,2012-12-21 06:23:00
1:52 AM,32.0,30.0,92,29.19,2.5,SSW,9.2,-,0.01,Snow,Light Snow,210,2012-12-21 06:52:00
2:27 AM,32.0,30.2,93,29.18,3.0,SSW,9.2,-,0.01,Snow,Light Snow,210,2012-12-21 07:27:00
2:52 AM,33.1,30.9,92,29.19,5.0,SW,13.8,17.3,0.01,Snow,Light Snow,220,2012-12-21 07:52:00
3:52 AM,33.1,30.9,92,29.20,4.0,WSW,16.1,20.7,0.03,Snow,Light Snow,240,2012-12-21 08:52:00
4:13 AM,33.8,30.2,87,29.20,2.5,WSW,15.0,20.7,0.00,,Overcast,240,2012-12-21 09:13:00
4:52 AM,34.0,32.0,92,29.23,5.0,West,11.5,-,0.01,,Overcast,280,2012-12-21 09:52:00
5:12 AM,33.8,32.0,93,29.24,10.0,WNW,11.5,20.7,N/A,,Overcast,300,2012-12-21 10:12:00
5:52 AM,34.0,30.9,89,29.27,10.0,West,9.2,-,N/A,,Overcast,280,2012-12-21 10:52:00
6:14 AM,33.8,30.2,87,29.27,8.0,West,12.7,19.6,0.00,Snow,Light Snow,270,2012-12-21 11:14:00
6:52 AM,34.0,30.9,89,29.30,9.0,West,17.3,-,0.00,Snow,Light Snow,280,2012-12-21 11:52:00
7:16 AM,33.8,30.2,87,29.31,4.0,WNW,17.3,-,0.00,Snow,Light Snow,290,2012-12-21 12:16:00
7:43 AM,33.8,28.4,81,29.33,8.0,WNW,19.6,26.5,0.00,Snow,Light Snow,300,2012-12-21 12:43:00
7:52 AM,33.1,28.9,85,29.35,7.0,WNW,21.9,28.8,0.00,Snow,Light Snow,300,2012-12-21 12:52:00
8:52 AM,33.1,27.0,78,29.39,10.0,WNW,20.7,32.2,0.00,,Overcast,300,2012-12-21 13:52:00
9:03 AM,33.8,26.6,75,29.38,9.0,WNW,23.0,31.1,0.00,Snow,Light Snow,290,2012-12-21 14:03:00
9:52 AM,34.0,26.1,73,29.43,10.0,WNW,25.3,36.8,0.00,,Overcast,300,2012-12-21 14:52:00
9:59 AM,33.8,26.6,75,29.42,10.0,WNW,24.2,39.1,N/A,,Overcast,300,2012-12-21 14:59:00
10:16 AM,33.8,24.8,70,29.43,10.0,NW,21.9,43.7,N/A,,Overcast,310,2012-12-21 15:16:00
10:52 AM,34.0,25.0,70,29.47,10.0,WNW,23.0,33.4,N/A,,Overcast,300,2012-12-21 15:52:00
11:47 AM,33.8,24.8,70,29.49,10.0,NW,25.3,39.1,0.00,,Overcast,310,2012-12-21 16:47:00
11:52 AM,33.1,24.1,70,29.51,10.0,NW,25.3,39.1,0.00,,Overcast,320,2012-12-21 16:52:00
11:59 AM,33.8,24.8,70,29.49,10.0,NW,25.3,38.0,N/A,,Overcast,320,2012-12-21 16:59:00
12:52 PM,33.1,24.1,70,29.54,10.0,NW,25.3,41.4,0.00,,Overcast,310,2012-12-21 17:52:00
1:49 PM,33.8,24.8,70,29.54,10.0,NW,21.9,35.7,0.00,,Overcast,320,2012-12-21 18:49:00
1:52 PM,33.1,23.0,66,29.57,10.0,NW,24.2,35.7,0.00,,Overcast,320,2012-12-21 18:52:00
2:52 PM,33.1,23.0,66,29.61,10.0,NW,21.9,36.8,N/A,,Overcast,320,2012-12-21 19:52:00
3:52 PM,34.0,25.0,70,29.64,10.0,NW,26.5,34.5,N/A,,Overcast,320,2012-12-21 20:52:00
4:31 PM,33.8,26.6,75,29.65,10.0,WNW,23.0,33.4,0.00,,Overcast,300,2012-12-21 21:31:00
4:50 PM,33.8,26.6,75,29.67,10.0,NW,21.9,31.1,N/A,,Overcast,310,2012-12-21 21:50:00
4:52 PM,33.1,25.0,72,29.69,10.0,NW,21.9,31.1,0.00,,Overcast,310,2012-12-21 21:52:00
5:52 PM,34.0,25.0,70,29.73,10.0,NW,18.4,27.6,N/A,,Overcast,310,2012-12-21 22:52:00
6:52 PM,34.0,24.1,67,29.76,10.0,NW,21.9,29.9,N/A,,Overcast,310,2012-12-21 23:52:00
7:52 PM,34.0,23.0,64,29.80,10.0,NW,23.0,33.4,N/A,,Overcast,310,2012-12-22 00:52:00
8:52 PM,34.0,23.0,64,29.83,10.0,NW,19.6,36.8,N/A,,Overcast,310,2012-12-22 01:52:00
9:52 PM,34.0,23.0,64,29.86,10.0,NW,19.6,31.1,N/A,,Overcast,320,2012-12-22 02:52:00
10:52 PM,33.1,21.9,64,29.90,10.0,NW,19.6,31.1,N/A,,Overcast,320,2012-12-22 03:52:00
11:52 PM,33.1,21.0,61,29.93,10.0,NW,21.9,33.4,N/A,,Overcast,310,2012-12-22 04:52:00